This is the latest recevied weather packets stored in our database for station/object W6ORV. If no packets are shown the sender has not sent any weather packets the latest 10 day(s).
| Time | Temp. | Humidity | Pressure | Rain* | Wind** | Luminosity | Snow |
|---|---|---|---|---|---|---|---|
| 1777560327 | 10° C | 89% | 4300 hPa | 0 mm | - | 111 W/m² | - |
| 1777560025 | 9.44° C | 91% | 4300.1 hPa | 0 mm | - | 177 W/m² | - |
| 1777559720 | 8.89° C | 92% | 4299.9 hPa | 0 mm | - | 173 W/m² | - |
| 1777559418 | 8.89° C | 94% | 4299.9 hPa | 0 mm | - | 92 W/m² | - |
| 1777559114 | 8.33° C | 95% | 4300 hPa | 0 mm | - | 69 W/m² | - |
| 1777558809 | 7.78° C | 96% | 4300.2 hPa | 0 mm | - | 58 W/m² | - |
| 1777558505 | 7.22° C | 96% | 4300.1 hPa | 0 mm | - | 50 W/m² | - |
| 1777558201 | 7.22° C | 96% | 4299.9 hPa | 0 mm | - | 34 W/m² | - |
| 1777557898 | 6.67° C | 96% | 4300 hPa | 0 mm | - | 32 W/m² | - |
| 1777557595 | 6.67° C | 96% | 4299.8 hPa | 0 mm | - | 29 W/m² | - |
| 1777557291 | 6.11° C | 96% | 4300 hPa | 0 mm | - | 26 W/m² | - |
| 1777556987 | 6.11° C | 96% | 4299.8 hPa | 0 mm | - | 23 W/m² | - |
| 1777556683 | 6.11° C | 96% | 4299.6 hPa | 0 mm | - | 20 W/m² | - |
| 1777556380 | 6.11° C | 96% | 4299.7 hPa | 0 mm | - | 17 W/m² | - |
| 1777556080 | 6.11° C | 96% | 4299.8 hPa | 0 mm | - | 14 W/m² | - |
| 1777555779 | 6.11° C | 96% | 4299.7 hPa | 0 mm | - | 12 W/m² | - |
| 1777555476 | 6.11° C | 96% | 4299.6 hPa | 0 mm | - | 8 W/m² | - |
| 1777555172 | 6.11° C | 96% | 4299.5 hPa | 0 mm | - | 6 W/m² | - |
| 1777554870 | 6.11° C | 96% | 4299.4 hPa | 0 mm | - | 3 W/m² | - |
| 1777554567 | 6.11° C | 96% | 4299.5 hPa | 0 mm | - | 0 W/m² | - |
| 1777554263 | 6.67° C | 96% | 4299.6 hPa | 0 mm | - | 0 W/m² | - |
| 1777553960 | 6.67° C | 96% | 4299.4 hPa | 0 mm | - | 0 W/m² | - |
| 1777553657 | 6.67° C | 96% | 4299.4 hPa | 0 mm | - | 0 W/m² | - |
| 1777553354 | 6.67° C | 96% | 4299.4 hPa | 0 mm | - | 0 W/m² | - |
| 1777553050 | 6.67° C | 95% | 4299.5 hPa | 0 mm | - | 0 W/m² | - |
* Rain latest hour (hover to see other rain measurements)
** Current wind speed in m/s (hover to see current wind gust speed)